Flight Briefing for CPX655

Departure Arrival
Key West International Airport (KEYW)
Click to view FAA NOTAMS
Miami International Airport (KMIA)
Click to view FAA NOTAMS
Departure Time Arrival Time
N/A N/A
Aircraft Distance
SF340AF 113nm
Departure METAR Arrival METAR
KEYW 212253Z 11008KT 10SM CLR 29/22 A2992 RMK AO2 SLP132 T02890217 KMIA 212253Z 12012KT 10SM FEW040 FEW060 FEW250 29/20 A2993 RMK AO2 SLP136 T02890200
Suggested Route
CARNU DVALL DVALL3


View recent IFR Routes data
Notes



Charts and Procedures

Charts for KEYW
No chart available
Charts for KMIA
No chart available

Windy.com Weather Map